Location: Asheville, NC
(35.6000°N, 82.5500°W)
Time: 16:39:04
(UTC-05:00)

FO-29 - Pass Details

Date: 03 January 2018
Orbit: 800 x 1322 km, 98.5° (Epoch: 18 January)

Event Time Altitude Azimuth Distance (km) Brightness Sun altitude
Rises 06:36:29 0° 124° (SE) 4,296 14.5 -12.7°
Reaches altitude 10° 06:39:56 10° 111° (ESE) 3,296 13.8 -12.0°
Maximum altitude 06:45:28 23° 64° (ENE) 2,403 12.1 -11.0°
Drops below altitude 10° 06:50:44 10° 17° (NNE) 3,108 12.1 -10.0°
Sets 06:53:50 0° 3° (N) 3,993 12.5 -9.4°
